Regional Weather Roundup
Issued by NWS

Home | Current Version | Previous Version | Graphics & Text | Print | Product List | Glossary On
Versions: 1 2 3 4 5 6 7 8 9 10 11 12 13 14 15 16 17 18 19 20 21 22 23 24 25 26 27 28 29 30 31 32 33 34 35 36 37 38 39 40 41 42 43 44 45 46 47 48 49 50
000
ASUS43 KLOT 230304
RWRIL

ILLINOIS REGIONAL WEATHER ROUNDUP
NATIONAL WEATHER SERVICE CHICAGO/ROMEOVILLE IL
1000 PM CDT SAT JUL 22 2017

NOTE: "FAIR" INDICATES FEW OR NO CLOUDS BELOW 12,000 FEET WITH NO
SIGNIFICANT WEATHER AND/OR OBSTRUCTIONS TO VISIBILITY.

* THESE STATIONS ARE NOT UNDER NWS QUALITY CONTROL. THEY ALSO MAY NOT
  REPORT WEATHER SUCH AS PRECIPITATION OR FOG.

ILZ001-002-007-009-015-016-024-230400-
NORTHWEST ILLINOIS

CITY           SKY/WX    TMP DP  RH WIND       PRES   REMARKS
MOLINE         PTCLDY    78  73  84 CALM      29.81S HX  81
STERLING*      CLOUDY    77  75  93 CALM      29.83R
SAVANNA*       FAIR      75  75  98 CALM      29.82S
$$

ILZ003-004-008-010-011-017-018-230400-
NORTH CENTRAL ILLINOIS

CITY           SKY/WX    TMP DP  RH WIND       PRES   REMARKS
ROCKFORD       MOCLDY    77  74  90 S3        29.83S
FREEPORT*      CLOUDY    76  74  93 SW3       29.84F
ROCHELLE*      FAIR      76  74  94 W3        29.84S
DE KALB*       FAIR      76  73  91 CALM      29.84S
$$

ILZ005-006-012>014-019>023-230400-
NORTHEAST ILLINOIS

CITY           SKY/WX    TMP DP  RH WIND       PRES   REMARKS
CHICAGO-OHARE  FAIR      77  69  76 NE3       29.82R
CHICAGO-MIDWAY MOCLDY    78  69  73 E6        29.82R HX  80
AURORA         PTCLDY    76  74  93 NW3       29.83R
LANSING*       CLEAR     76  67  75 CALM      29.83R
JOLIET*        CLOUDY    81  76  84 CALM      29.82R HX  87
WAUKEGAN       CLEAR     71  71 100 CALM      29.83R FOG
DUPAGE AIRPORT FAIR      77  73  87 NE3       29.82R
WHEELING       FAIR      75  72  90 CALM      29.84R
MORRIS*        CLOUDY    77  75  92 NW3       29.81S
NORTHERLY ISL    N/A     73  69  87 CALM        N/A
$$

LMZ740>746-230400-
SOUTHERN LAKE MICHIGAN

STATION/POSITION SKY/WX   TEMP    WIND        PRES    VSBY  WAVE
                          AIR SEA DIR/SP/G                  HT/PER
                          (F)     (DEG/KT/KT) (MB)    (MI)  (FT/S)
SOUTHERN BUOY              69 70  180/  6/  6 1009.9          0
WILMETTE HARBOR            73 74     CALM       N/A           0
HARRISON CRIB              75      90/  3/  4   N/A
BURNHAM HARBOR             73                   N/A
CALUMET HARBOR             75      70/  3/  5 1009.5R
BURNS HARBOR               75      70/  7/  9 1010.5R
MICHIGAN CITY              74      70/  5/  6   N/A
MICHIGAN CITY 6N           75 75   80/  6/  8   N/A           1
ST. JOSEPH                 74 76   50/  2/  2 1009.6R         0
$$

ILZ025>027-034>036-040-047-049-050-058-095>099-230400-
WEST-CENTRAL ILLINOIS

CITY           SKY/WX    TMP DP  RH WIND       PRES   REMARKS
QUINCY         MOCLDY    84  79  85 N10       29.82R HX  96
GALESBURG*     PTCLDY    76  74  92 N6        29.84S
MACOMB*        PTCLDY    79  77  93 CALM      29.85R HX  84
JACKSONVILLE*  CLEAR     81  78  90 CALM      29.80R HX  89
PITTSFIELD*    CLEAR     82  79  90 CALM      29.83R HX  93
$$

ILZ028>032-037-038-041>044-048-051>054-059>061-230400-
CENTRAL ILLINOIS

CITY           SKY/WX    TMP DP  RH WIND       PRES   REMARKS
PONTIAC        CLOUDY    77  77  99 CALM      29.83S
BLOOMINGTON    CLEAR     77  75  93 NE5       29.84R
DECATUR        PTCLDY    81  77  88 N8        29.80S HX  88
PEORIA         CLOUDY    81  78  91 NE5       29.82R HX  89
LACON*         CLOUDY    77  76  97 CALM      29.81F
LINCOLN*       CLEAR     81  79  95 NE3       29.80S HX  90
SPRINGFIELD    CLEAR     84  80  88 NE5       29.80R HX  97
TAYLORVILLE    MOCLDY    82  78  85 CALM      29.79S HX  91
$$

ILZ033-039-045-046-055>057-062-063-230400-
EAST-CENTRAL ILLINOIS

CITY           SKY/WX    TMP DP  RH WIND       PRES   REMARKS
CHAMPAIGN      PTCLDY    80  76  87 NE6       29.82R HX  86
RANTOUL*       CLEAR     80  78  92 E3        29.83R HX  88
MATTOON        MOCLDY    81  80  97 SE6       29.79F HX  91
$$

ILZ079-100>102-230400-
SOUTHWEST ILLINOIS

CITY           SKY/WX    TMP DP  RH WIND       PRES   REMARKS
ALTON          MOCLDY    86  81  84 CALM      29.78R HX 102
CAHOKIA*       MOCLDY    91  72  53 W5        29.78R HX  98
SPARTA*        CLEAR     86  75  68 SW8       29.81S HX  95
$$

ILZ064>066-069>071-074>076-080>082-084>086-088>090-092>094-230400-
SOUTH-CENTRAL ILLINOIS

CITY           SKY/WX    TMP DP  RH WIND       PRES   REMARKS
CARBONDALE     CLEAR     86  76  71 SW12      29.83R HX  96
CAIRO*         CLEAR     85  75  72 S8        29.85S HX  94
EFFINGHAM*     PTCLDY    88  74  63 CALM      29.81F HX  96
MARION         CLEAR     86  75  70 SW9       29.84R HX  95
MT. VERNON     CLEAR     86  76  71 SW9       29.81  HX  96
CENTRALIA*     CLEAR     87  77  72 S9        29.79S HX  98
SALEM*         CLEAR     87  74  66 S6        29.80S HX  95
METROPOLIS*    CLEAR     84  75  73 S6        29.87R HX  91
$$

ILZ067-068-072-073-078-083-087-091-230400-
SOUTHEAST ILLINOIS

CITY           SKY/WX    TMP DP  RH WIND       PRES   REMARKS
LAWRENCEVILLE  PTCLDY    85  73  67 S9        29.80F HX  91
FLORA*         CLEAR     83  75  75 SE6       29.81S HX  90
FAIRFIELD*     CLEAR     83  75  76 S3        29.80S HX  90
HARRISBURG*    CLEAR     83  75  77 SW5       29.84R HX  91
ROBINSON*      CLOUDY    80  75  84 E3        29.80F HX  86
CARMI*         CLEAR     82  75  81 S6        29.82S HX  88
$$

ABBREVIATIONS USED IN REMARKS
   TC - TEMPERATURE IN CELSIUS
  WCI - WIND CHILL INDEX
   HX - HEAT INDEX
  VSB - VISIBILITY
$$




USA.gov is the U.S. government's official web portal to all federal, state and local government web resources and services.